Content
SEND FEEDBACK

Daily
Averages
Monthly
Summary
United States of America

CASTLE ROCK, CALIFORNIA


Home > North America > United States > California
Elevation: 620 feet     Latitude: 37 38N     Longitude: 121 29W

WEATHER
 
SELECT A DAY
Number of Records: 173,456;   Date Range: 1/1/95 - 7/7/14
 
SHARE

PRINT THIS DATA

[ ← Previous Day ]
WEATHER ALMANAC - FEBRUARY 13, 2013
[ Next Day → ]
[ °C ]   °F
Weather ElementAverageHighLow
Temperature48.1 °F64 °F (2:53 pm)33.1 °F (6:53 am)
Dewpoint36.5 °F44.1 °F (5:53 pm)30 °F (6:53 am)
Humidity67.3 %89 % (6:53 am)38 % (2:53 pm)
Barometer30.28 in30.35 in (8:53 am)30.21 in (4:53 pm)
Wind Speed1.5 mph5.8 mph (3:53 pm)
Weather ElementAverage
Visibility10 mi
Wind DirectionNNE (38.3 °)

Weather ElementTotal
Precipitation---
Heating Degree Days16.5 (Base 65)
Averaged from 23 records on February 13, 2013
WEATHER CONDITIONS BREAKOUT
WIND DIRECTION BREAKOUT
WEATHER BY HOUR - FEBRUARY 13, 2013
[ °C ]   °F
Local TimeTemperatureDewpointHumidityBarometerVisibilityWind DirectionWind SpeedGust SpeedPrecipitationEventsConditions
1:53 AM36.0 °F32.0 °F86 %30.34 in10.0 miEast (90°)3.5 mphClear
2:53 AM36.0 °F32.0 °F86 %30.33 in10.0 miCalmClear
3:53 AM35.1 °F30.9 °F85 %30.32 in10.0 miCalmClear
4:53 AM36.0 °F30.9 °F82 %30.32 in10.0 miCalmClear
5:53 AM36.0 °F32.0 °F86 %30.33 in9.0 miCalmClear
6:53 AM33.1 °F30.0 °F89 %30.33 in10.0 miCalmClear
7:53 AM37.9 °F32.0 °F79 %30.34 in10.0 miCalmClear
8:53 AM42.1 °F35.1 °F76 %30.35 in10.0 miCalmClear
9:53 AM46.9 °F36.0 °F66 %30.35 in10.0 miCalmClear
10:53 AM52.0 °F39.0 °F61 %30.34 in10.0 miCalmClear
11:53 AM57.9 °F39.0 °F49 %30.32 in10.0 miCalmClear
12:53 PM60.1 °F39.0 °F46 %30.28 in10.0 miCalmClear
1:53 PM62.1 °F37.9 °F41 %30.25 in10.0 miCalmClear
2:53 PM64.0 °F37.9 °F38 %30.23 in10.0 miVariable4.6 mphClear
3:53 PM64.0 °F37.9 °F38 %30.22 in10.0 miENE (70°)5.8 mphClear
4:53 PM63.0 °F41.0 °F45 %30.21 in10.0 miCalmClear
5:53 PM57.0 °F44.1 °F62 %30.21 in10.0 miWSW (240°)4.6 mphClear
6:53 PM55.9 °F41.0 °F57 %30.22 in10.0 miWNW (300°)5.8 mphClear
7:53 PM52.0 °F39.9 °F63 %30.22 in10.0 miNE (40°)3.5 mphClear
8:53 PM48.0 °F39.9 °F74 %30.23 in10.0 miCalmClear
9:53 PM46.9 °F39.0 °F74 %30.23 in10.0 miCalmClear
10:53 PM42.1 °F37.0 °F82 %30.23 in10.0 miENE (60°)3.5 mphClear
11:53 PM42.1 °F37.0 °F82 %30.23 in10.0 miEast (80°)3.5 mphClear
Hourly data recorded from KLVK, located miles away from Castle Rock, California







STORIES FROM OUR PARTNERS